Back to catalog

USA 25

AliveMilitaryLEO
NORAD 18025·PAYLOAD·🇺🇸 United States

Launched May 15, 1987 from Vandenberg Space Force Base

Loading…

Next Passes (next 24 hours)

TLE

FreshSource: Space-Track

Epoch: Sep 14, 2026, 13:35 UTC

1 18025U 87043H   26257.56634601  .00009210  00000-0  49705-3 0  9991
2 18025  63.2892 100.4806 0769772 105.2715 263.4699 13.92292367364316

Track USA 25 in real time with AllMySat

Download on the App Store